Regional Weather Roundup
Issued by NWS

Home | Current Version | Previous Version | Graphics & Text | Print | Product List | Glossary On
Versions: 1 2 3 4 5 6 7 8 9 10 11 12 13 14 15 16 17 18 19 20 21 22 23 24 25 26 27 28 29 30 31 32 33 34 35 36 37 38 39 40 41 42 43 44 45 46 47 48 49 50
000
ASUS45 KBOU 180207
RWRCO

WEATHER ROUNDUP FOR COLORADO
NATIONAL WEATHER SERVICE DENVER/BOULDER CO
800 PM MDT FRI APR 17 2015

NOTE: "FAIR" INDICATES FEW OR NO CLOUDS BELOW 12000 FEET WITH NO
SIGNIFICANT WEATHER AND/OR OBSTRUCTIONS TO VISIBILITY.

COZ001>005-013-030-031-180300-
...NORTHWEST COLORADO...

CITY           SKY/WX    TMP DP  RH WIND       PRES   REMARKS
CRAIG          CLOUDY    40  37  89 SW13      29.98S
HAYDEN         CLOUDY    41  32  70 W7        29.98R
MEEKER         LGT RAIN  38  34  85 MISG      30.00S
MOUNT WERNER   NOT AVBL
STEAMBOAT SPGS CLOUDY    40  22  50 N3        29.98R
WALDEN         MOCLDY    32  28  86 NW3       30.03R
$$

COZ006>008-011-180300-
...WEST CENTRAL VALLEYS...

CITY           SKY/WX    TMP DP  RH WIND       PRES   REMARKS
GRAND JUNCTION LGT RAIN  36  35  96 CALM      30.02S
MONTROSE       LGT RAIN  37  34  89 SE7       30.03S
EAGLE          PTCLDY    36  30  80 W3        30.02F
RIFLE          CLOUDY    36  33  89 CALM      30.03S
DELTA          LGT RAIN  38  37  93 NE10      30.03S
NUCLA          DRIZZLE   36  34  93 W9        30.06R
$$

COZ017>023-064>068-180300-
...SOUTHWEST COLORADO...

CITY           SKY/WX    TMP DP  RH WIND       PRES   REMARKS
DURANGO        MOCLDY    39  21  48 SW8       30.02R
CORTEZ         CLOUDY    40  28  62 SE5       30.03S
PAGOSA SPRINGS CLOUDY    34  20  57 E6        30.04R WCI  29
TELLURIDE      LGT SNOW  27  26  98 S5        30.03S WCI  22
WOLF CREEK PAS SNOW      12  12 100 SW13G20   30.05S VSB 1/4 WCI  -3
$$

COZ009-010-012-014-032>034-037-058>063-180300-
...CENTRAL COLORADO...

CITY           SKY/WX    TMP DP  RH WIND       PRES   REMARKS
ASPEN          CLOUDY    29  26  89 N5        29.99S WCI  24
BUENA VISTA    MOCLDY    25  19  80 NW6       30.01S WCI  18
COPPER MTN     PTCLDY    23  -4  30 CALM      30.03S
BERTHOUD PASS  HAZE      14   7  73 E14       30.06R VSB<1/4 WCI  -1
COTTONWOOD PAS MOCLDY    28  19  69 W5        30.01F WCI  23
GUNNISON       CLOUDY    30  25  80 N3        30.05S
KREMMLING      MOCLDY    36  21  55 NW7       30.01R
LEADVILLE      PTCLDY    18  12  77 CALM      30.00F
MONARCH PASS     N/A     14  12  92 MISG      30.12S
SALIDA         MOCLDY    32  27  81 W3        30.09R
SUNLIGHT       MOCLDY    21  19  93 CALM      30.06R
WILKERSON PASS CLOUDY    19  12  73 CALM      30.06S
$$

COZ069>075-180300-
...SAN LUIS VALLEY/SANGRE DE CRISTO MOUNTAINS...

CITY           SKY/WX    TMP DP  RH WIND       PRES   REMARKS
ALAMOSA        CLOUDY    35  19  52 N12       30.00R WCI  27
LA VETA PASS   MOCLDY    21  12  68 MISG      29.99F
SAGUACHE       CLOUDY    32  25  74 SW5       30.02S WCI  27
$$

COZ035-036-038>040-180300-
...NORTHERN COLORADO FRONT RANGE...

CITY           SKY/WX    TMP DP  RH WIND       PRES   REMARKS
DENVER INTL AP MOCLDY    43  40  89 N8        30.00R
DMNS CITY PARK   N/A     44  37  77 N6G15     30.01R
AURORA         MOCLDY    42  42  99 N10       30.02R
FRONT RANGE AP MOCLDY    46  45  93 N9        30.02R
ERIE MUNI ARPT PTCLDY    42  37  82 NE5       30.01R
BOULDER MUN AP PTCLDY    43  36  75 CALM      30.00R
CENTENNIAL     MOCLDY    42  37  82 N14       30.01R
BROOMFIELD     MOCLDY    41  37  87 VRB10     30.01R
FORT COLLINS   MOCLDY    43  34  70 N17       30.02R
LONGMONT       MOCLDY    45  35  68 CALM      30.02R
$$

COZ041-046-047-076>085-087-088-180300-
...PIKES PEAK/PALMER DIVIDE AND SOUTHERN FOOTHILLS...

CITY           SKY/WX    TMP DP  RH WIND       PRES   REMARKS
COLO. SPRINGS  FLURRIES  38  31  76 VRB3      30.04R
A. F. ACADEMY  MIX PCPN  41  26  57 SE14G26   30.03R
ELLICOTT       LGT SNOW N/A N/A N/A NW9       30.02S
FALCON         LGT SNOW  34  32  93 SE5       30.05R WCI  30
FORT CARSON    CLOUDY    41  30  66 NE8       29.98R
LIMON          CLOUDY    44  35  70 S14G23    30.00R
MONUMENT HILL  CLOUDY    36  30  80 SW10      30.03R
TRINIDAD       MOCLDY    44  28  53 NE5       29.96R
$$

COZ042>045-048>051-090-091-180300-
...NORTHEAST COLORADO...

CITY           SKY/WX    TMP DP  RH WIND       PRES   REMARKS
GREELEY ARPT   MOCLDY    43  34  70 N9        29.99S
AKRON          CLOUDY    45  43  93 W12       29.95S
BURLINGTON     MOCLDY    51  43  74 E13       29.92R
WRAY           MOCLDY    57  48  72 E10G16    29.94R
STERLING       CLOUDY    50  43  76 NW25G36   29.95R
HOLYOKE        MOCLDY    57  52  82 E7        29.95S
FORT MORGAN    CLOUDY    41  37  86 NW17G25   29.98S
$$

COZ086-089-092>099-180300-
...SOUTHEAST COLORADO...

CITY           SKY/WX    TMP DP  RH WIND       PRES   REMARKS
PUEBLO         CLOUDY    47  32  56 N13       29.96S
LA JUNTA       CLOUDY    50  34  54 W13       29.94R
LAMAR          PTCLDY    52  37  56 W18G29    29.90R
SPRINGFIELD      N/A     47  27  45 S8        29.92R
$$



USA.gov is the U.S. government's official web portal to all federal, state and local government web resources and services.